DateTimeUTC,F1_A11,F1_S11,BsB_S11,BsG_S11,BsR_S11,BbsB_S11,BbsG_S11,BbsR_S11,BaB_A11,BaG_A11,BaR_A11,Tu_S11,T_S11,Uu_S11,U_S11,P_S11,T1_A11
2021-11-29T09:00:00Z,00000200,21000000,,,,,,,0000.01,-000.47,0000.05,19.1,25.9,,00.0,0632.9,30.9
2021-11-29T09:01:00Z,00000200,21000000,,,,,,,-000.13,0000.15,0000.08,19.1,25.9,,00.0,0632.9,30.9
2021-11-29T09:02:00Z,00000200,21000000,,,,,,,0000.47,0000.15,-000.18,19.0,25.9,,00.0,0632.9,30.9
2021-11-29T09:03:00Z,00000200,61000000,,,,,,,-000.04,-000.16,-000.04,19.0,25.9,,00.0,0632.9,30.9
2021-11-29T09:04:00Z,00000200,41000000,0000.27,0000.49,0000.36,0000.66,0000.05,0000.02,0000.32,0000.07,0000.51,19.2,25.7,,00.0,0633.7,30.9
2021-11-29T09:05:00Z,00000200,01000000,0000.13,0000.36,0000.12,-000.11,0000.11,0000.01,-000.12,0000.23,0000.02,19.3,25.7,,00.0,0633.7,30.9
2021-11-29T09:06:00Z,00000200,01000000,0001.01,0000.40,0000.28,0000.03,0000.16,0000.11,0000.15,0000.44,0000.26,19.3,25.7,,00.0,0633.6,30.9
2021-11-29T09:07:00Z,00000200,01000000,0000.39,0000.13,-000.18,0000.00,-000.09,-000.05,0000.75,0000.22,0000.39,19.3,25.7,,00.0,0633.6,30.9
2021-11-29T09:08:00Z,00000200,01000000,0000.45,0000.53,0000.31,-000.27,0000.18,-000.19,-000.08,0000.42,0000.06,19.3,25.7,,00.0,0633.6,30.9
2021-11-29T09:09:00Z,00000200,01000000,0000.11,0000.36,-000.05,-000.27,0000.16,-000.03,0000.55,0000.23,0000.22,19.4,25.7,,00.0,0633.6,30.9
2021-11-29T09:10:00Z,00000200,01000000,0000.78,0000.53,0000.08,-000.21,0000.08,-000.05,0000.15,0000.48,0000.12,19.4,25.7,,00.0,0633.5,30.9
2021-11-29T09:11:00Z,00000200,01000000,0000.39,0000.13,0000.14,0000.42,0000.19,-000.21,0000.46,0000.24,0000.42,19.4,25.7,,00.0,0633.6,30.9
2021-11-29T09:12:00Z,00000200,01000000,0001.28,0000.58,0000.04,0000.08,0000.03,0000.20,0000.18,0000.24,0000.12,19.4,25.7,,00.0,0633.6,30.9
2021-11-29T09:13:00Z,00000200,01000000,0000.73,0000.46,0000.31,-000.21,0000.17,0000.35,-000.01,-000.05,0000.50,19.4,25.7,,00.0,0633.5,30.9
2021-11-29T09:14:00Z,00000200,01000000,0000.86,0000.15,0000.11,0000.46,-000.03,0000.18,0000.33,0000.05,0000.03,19.4,25.7,,00.0,0633.5,30.9
2021-11-29T09:15:00Z,00000200,01000000,0000.70,0000.79,0000.18,0000.53,0000.29,0000.33,-000.00,0000.46,-000.63,19.3,25.7,,00.0,0633.6,30.9
2021-11-29T09:16:00Z,00000200,01000000,0001.13,0000.38,-000.01,-000.04,0000.16,0000.05,0000.19,-000.10,0000.21,19.3,25.6,,00.0,0633.5,30.9
2021-11-29T09:17:00Z,00000200,01000000,0000.47,0000.38,0000.02,0000.31,-000.44,0000.29,0000.33,0000.37,0000.46,19.2,25.6,,00.0,0633.6,30.8
2021-11-29T09:18:00Z,00000200,01000000,0000.77,0000.31,0000.08,-000.24,0000.32,-000.18,-000.10,-000.26,-000.21,19.3,25.6,,00.0,0633.6,30.9
2021-11-29T09:19:00Z,00000200,01000000,0000.70,0000.39,0000.22,0000.23,0000.17,-000.25,0000.03,0000.39,0000.12,19.3,25.6,,00.0,0633.6,30.9
2021-11-29T09:20:00Z,00000200,01000000,0000.60,0000.26,0000.28,0000.11,-000.09,0000.04,0000.59,-000.16,0000.00,19.3,25.6,,00.0,0633.6,30.9
2021-11-29T09:21:00Z,00000200,01000000,0000.39,0000.58,0000.12,-000.16,0000.08,0000.14,-000.33,0000.27,0000.40,19.3,25.6,,00.0,0633.6,30.9
2021-11-29T09:22:00Z,00000200,01000000,0000.64,0000.62,0000.04,0000.45,-000.13,0000.56,0000.03,-000.11,-000.30,19.3,25.6,,00.0,0633.6,30.9
2021-11-29T09:23:00Z,00000200,01000000,0000.59,0000.47,0000.32,-000.39,0000.01,0000.23,0000.29,0000.13,0000.41,19.3,25.6,,00.0,0633.7,30.9
2021-11-29T09:24:00Z,00000200,01000000,0000.97,0000.38,0000.14,-000.10,-000.11,-000.03,0000.46,0000.29,-000.11,19.4,25.6,,00.0,0633.7,30.9
2021-11-29T09:25:00Z,00000200,01000000,0000.98,0000.47,-000.01,0000.37,0000.03,-000.31,0000.26,0000.27,0000.06,19.4,25.6,,00.0,0633.6,30.9
2021-11-29T09:26:00Z,00000200,01000000,0000.61,0000.70,0000.04,-000.28,0000.13,-000.19,0000.30,0000.13,0000.25,19.4,25.6,,00.0,0633.6,30.9
2021-11-29T09:27:00Z,00000200,01000000,0000.14,0000.39,0000.45,0000.17,0000.03,0000.08,0000.10,0000.15,0000.11,19.4,25.7,,00.0,0633.6,30.9
2021-11-29T09:28:00Z,00000200,01000000,0000.31,0000.39,0000.01,-000.32,0000.40,-000.33,-000.03,0000.29,0000.38,19.4,25.6,,00.0,0633.6,30.9
2021-11-29T09:29:00Z,00000200,01000000,0000.25,0000.10,-000.09,-000.51,0000.09,0000.13,0000.15,0000.04,-000.08,19.3,25.6,,00.0,0633.6,30.9
2021-11-29T09:30:00Z,00000200,01000000,0000.61,0000.61,0000.31,0000.26,0000.08,-000.13,0000.14,-000.24,0000.14,19.2,25.6,,00.0,0633.6,30.9
2021-11-29T09:31:00Z,00000200,01000000,0000.81,0000.40,0000.03,-000.20,0000.28,-000.12,0000.38,0000.75,0000.07,19.1,25.5,,00.0,0633.5,30.8
2021-11-29T09:32:00Z,00000200,01000000,0000.15,0000.21,0000.42,-000.36,0000.04,0000.29,0000.24,0000.18,0000.34,19.1,25.5,,00.0,0633.5,30.8
2021-11-29T09:33:00Z,00000200,01000000,0000.05,0000.55,0000.00,0000.24,0000.46,0000.12,0000.22,0000.02,0000.07,19.1,25.5,,00.0,0633.5,30.8
2021-11-29T09:34:00Z,00000200,01000000,0000.07,0000.51,0000.47,-000.08,0000.02,0000.06,0000.04,-000.10,0000.08,19.1,25.5,,00.0,0633.5,30.8
2021-11-29T09:35:00Z,00000200,01000000,-000.16,0000.36,-000.02,-000.15,-000.05,-000.16,0000.41,0000.54,0000.21,19.2,25.5,,00.0,0633.5,30.9
2021-11-29T09:36:00Z,00000200,01000000,0000.50,0000.31,-000.11,-000.34,0000.18,-000.06,0000.56,0000.55,0000.27,19.2,25.5,,00.0,0633.4,30.8
2021-11-29T09:37:00Z,00000200,01000000,-000.15,0000.66,-000.26,0000.63,0000.17,0000.20,-000.26,-000.01,0000.09,19.2,25.5,,00.0,0633.4,30.9
2021-11-29T09:38:00Z,00000200,01000000,0000.88,0000.36,-000.05,0000.26,-000.01,0000.50,0000.42,0000.20,0000.18,19.2,25.5,,00.0,0633.4,30.9
2021-11-29T09:39:00Z,00000200,01000000,0000.39,0000.34,0000.22,0000.09,-000.18,0000.16,0000.14,0000.25,0000.20,19.2,25.5,,00.0,0633.4,30.9
2021-11-29T09:40:00Z,00000200,01000000,0000.96,0000.54,0000.12,0000.49,0000.18,-000.17,0000.17,-000.02,0000.27,19.3,25.5,,00.0,0633.3,30.9
2021-11-29T09:41:00Z,00000200,01000000,0000.86,0000.49,0000.08,0000.07,0000.10,0000.18,0000.15,0000.39,0000.12,19.3,25.5,,00.0,0633.2,30.9
2021-11-29T09:42:00Z,00000200,01000000,0000.81,0000.50,-000.14,-000.26,0000.09,0000.26,0000.60,0000.57,0000.33,19.3,25.5,,00.0,0633.2,30.9
2021-11-29T09:43:00Z,00000200,01000000,0000.45,0000.25,0000.06,0000.17,0000.29,0000.10,0000.13,-000.05,0000.07,19.3,25.5,,00.0,0633.1,30.9
2021-11-29T09:44:00Z,00000200,01000000,0000.49,0000.49,-000.11,0000.09,0000.25,0000.01,0000.22,0000.48,0000.24,19.2,25.5,,00.0,0633.0,30.9
2021-11-29T09:45:00Z,00000200,01000000,0000.25,0000.28,0000.34,-000.16,0000.07,0000.06,0000.37,0000.10,0000.29,19.1,25.5,,00.0,0632.9,30.8
2021-11-29T09:46:00Z,00000200,01000000,0000.82,0000.41,-000.00,0000.17,0000.01,0000.19,0000.47,0000.65,0000.54,19.0,25.5,,00.0,0632.8,30.8
2021-11-29T09:47:00Z,00000200,01000000,-000.22,0000.08,0000.09,0000.76,-000.02,0000.25,0000.25,-000.29,-000.39,19.0,25.4,,00.0,0632.8,30.8
2021-11-29T09:48:00Z,00000200,01000000,-000.54,0000.44,0000.01,0000.26,0000.16,-000.02,0000.24,0000.45,0000.47,19.0,25.4,,00.0,0632.8,30.8
2021-11-29T09:49:00Z,00000200,01000000,0000.57,0000.57,0000.27,0000.72,0000.10,0000.44,0000.30,0000.30,0000.31,19.0,25.4,,00.0,0632.8,30.8
2021-11-29T09:50:00Z,00000200,01000000,0001.03,0000.13,0000.19,0000.62,0000.40,-000.09,0000.05,0000.62,0000.40,19.1,25.4,,00.0,0632.8,30.8
2021-11-29T09:51:00Z,00000200,01000000,0000.62,0000.39,-000.32,0000.41,0000.04,-000.24,0000.28,-000.07,0000.05,19.1,25.4,,00.0,0632.9,30.8
2021-11-29T09:52:00Z,00000200,01000000,0000.78,0000.47,-000.17,-000.18,0000.22,-000.23,0000.11,-000.08,0000.09,19.1,25.4,,00.0,0632.9,30.8
2021-11-29T09:53:00Z,00000200,01000000,0000.89,0000.45,0000.48,-000.23,0000.31,0000.08,0000.31,0000.38,-000.35,19.1,25.4,,00.0,0632.8,30.8
2021-11-29T09:54:00Z,00000200,01000000,0000.31,0000.45,0000.35,-000.59,0000.15,-000.03,0000.16,0000.38,0000.36,19.1,25.4,,00.0,0632.8,30.8
2021-11-29T09:55:00Z,00000200,01000000,0000.88,0000.42,0000.07,0000.01,-000.15,0000.13,0000.46,-000.20,0000.65,19.2,25.5,,00.0,0632.8,30.9
2021-11-29T09:56:00Z,00000200,01000000,0000.56,0000.49,-000.02,0000.03,0000.38,0000.01,0000.23,0000.37,0000.18,19.2,25.5,,00.0,0632.8,30.8
2021-11-29T09:57:00Z,00000200,41000000,,,,,,,-000.75,-000.15,-000.79,19.2,25.5,,00.0,0632.9,30.9
2021-11-29T09:58:00Z,00000200,61000000,,,,,,,0000.31,-000.39,0000.40,18.9,25.6,,00.0,0631.8,30.9
2021-11-29T09:59:00Z,00000200,21000000,,,,,,,-000.05,0000.32,-000.10,18.8,25.7,,00.0,0631.8,30.9
